ギブス彗星

229P/Gibbs (2017)

English version
Home page
Updated on May 20, 2019

---------------------------------------------------------------------

・ プロフィール

・ 写真集

・ 軌道要素

Epoch 2017 May 7.0 TT = JDT 2457880.5
T 2017 May 20.73884 TT                                  MPCW
q   2.4558772            (2000.0)            P               Q
n   0.12620719     Peri.  224.14226     +0.90020357     -0.40289245
a   3.9362257      Node   157.90919     +0.40596645     +0.91374325
e   0.3760832      Incl.   26.06788     -0.15755883     +0.05244950
P   7.81
From 148 observations 2001 Aug. 23-2017 Sept. 25, mean residual 0".8.
     Nongravitational parameters A1 = +1.38, A2 = +0.0113.

・ 光度変化

        m1 = 11.0 + 5 logΔ + 15.0 log r(t - 100)

---------------------------------------------------------------------

軌道要素はM.P.E.C. 2017-T14に掲載されたものです。
光度グラフはComet for Windowsで作成したものです。

---------------------------------------------------------------------

Copyright(C) Seiichi Yoshida (comet@aerith.net). All rights reserved.